This demonstration page uses our WeatherBlox Daily Observations layout. Learn more.

39.92423, -83.80882

Hourly Observations for October 1, 2018

Temp ( °F °C ) Dew Point ( °F °C ) Humidity (%) Winds ( mph kmh ) Pressure ( in mb ) Visibility ( mi km ) Precip ( " mm )
12:56 am 00:56 Clear 56 13.3 55 12.8 97 97 S 3 6 30.22 1023 10 16.0934 0 0
1:56 am 01:56 Clear 57 13.9 56 13.3 96 96 Calm 30.21 1023 10 16.0934 0 0
2:56 am 02:56 Clear 54 12.2 54 12.2 100 100 Calm 30.22 1023 10 16.0934 0 0
3:56 am 03:56 Clear 57 13.9 57 13.9 100 100 S 3 6 30.21 1023 10 16.0934 0 0
4:56 am 04:56 Clear 58 14.4 57 13.9 97 97 SSW 3 6 30.22 1023 10 16.0934 0 0
5:56 am 05:56 Clear 59 15 57 13.9 93 93 S 3 6 30.23 1024 10 16.0934 0 0
6:56 am 06:56 Clear 59 15 59 15 100 100 SSW 5 7 30.24 1024 10 16.0934 0 0
8:56 am 08:56 Sunny 63 17.2 62 16.7 97 97 Calm 30.27 1025 10 16.0934 0 0
9:56 am 09:56 Sunny 70 21.1 64 17.8 82 82 WSW 8 13 30.28 1025 10 16.0934 0 0
10:56 am 10:56 Sunny 75 23.9 63 17.2 66 66 WSW 8 13 30.27 1025 10 16.0934 0 0
11:56 am 11:56 Sunny 78 25.6 63 17.2 60 60 VRB 7 11 30.26 1025 10 16.0934 0 0
12:56 pm 12:56 Sunny 79 26.1 64 17.8 60 60 SW 9 15 30.25 1024 10 16.0934 0 0
1:56 pm 13:56 Mostly Sunny 81 27.2 63 17.2 54 54 S 6 9 30.24 1024 10 16.0934 0 0
2:56 pm 14:56 Partly Cloudy 82 27.8 64 17.8 55 55 WSW 10 17 30.21 1023 10 16.0934 0 0
3:56 pm 15:56 Partly Cloudy 81 27.2 65 18.3 58 58 SSW 7 11 30.19 1022 10 16.0934 0 0
4:56 pm 16:56 Sunny 81 27.2 65 18.3 58 58 SW 8 13 30.17 1022 10 16.0934 0 0
5:56 pm 17:56 Mostly Sunny 80 26.7 65 18.3 60 60 SW 7 11 30.16 1021 10 16.0934 0 0
6:56 pm 18:56 Sunny 77 25 66 18.9 69 69 S 5 7 30.16 1021 10 16.0934 0 0
7:56 pm 19:56 Clear 74 23.3 66 18.9 76 76 S 5 7 30.16 1021 10 16.0934 0 0
8:56 pm 20:56 Mostly Clear 74 23.3 66 18.9 76 76 S 6 9 30.14 1021 10 16.0934 0 0
9:56 pm 21:56 Partly Cloudy 73 22.8 66 18.9 79 79 S 3 6 30.14 1021 10 16.0934 0 0
10:56 pm 22:56 Clear 72 22.2 67 19.4 84 84 S 5 7 30.14 1021 10 16.0934 0 0
11:56 pm 23:56 Clear 71 21.7 67 19.4 87 87 S 6 9 30.13 1020 10 16.0934 0 0

Powered by AerisWeather